Wind_Speed
40 38 35 34 35 34 33 31 30 29 32 33 32 30 28 30 27 26 27 27 28 28 30 30 30 30 30 30 31 31 31 31 31 31 31 31 31 31 31 31 31 32 32 32
44 41 38 39 38 37 36 35 34 34 36 38 38 35 31 30 30 29 29 29 29 30 32 32 33 32 32 32 32 32 32 33 33 33 34 34 34 34 34 34 34 35 35 35
48 45 44 42 40 40 39 38 38 39 40 41 43 42 35 32 32 31 30 30 32 33 34 35 36 35 34 34 34 34 34 34 35 35 36 36 37 37 37 37 38 38 37 37
52 49 47 45 43 42 42 41 42 43 43 43 46 51 41 35 34 32 31 33 34 36 37 37 37 37 37 37 37 37 36 36 36 37 38 38 39 39 40 40 40 40 40 40
54 52 50 48 46 46 46 45 45 46 46 48 49 54 51 41 36 33 33 34 36 38 40 40 39 39 39 40 40 39 38 38 38 39 40 41 41 42 43 43 43 43 43 42
57 56 54 52 50 48 48 48 48 48 49 54 52 55 58 47 42 38 35 35 36 39 41 41 40 41 41 42 42 42 41 41 41 42 42 42 43 44 45 45 45 45 45 44
58 57 56 55 53 51 49 49 49 51 53 56 56 60 60 52 48 43 39 38 38 39 39 40 41 41 42 43 44 44 43 43 43 43 43 43 44 45 46 46 46 46 45 45
61 61 58 57 55 53 51 51 53 55 57 58 61 65 61 56 51 47 45 42 39 38 38 39 40 41 42 43 44 44 44 44 43 43 44 44 45 46 47 47 47 47 47 47
62 63 61 59 57 56 57 57 55 56 59 63 66 67 63 58 55 53 50 47 42 39 38 39 41 42 42 43 44 44 44 44 44 44 44 45 45 46 47 47 48 47 47 47
63 65 66 64 63 62 61 60 58 59 61 65 69 69 65 62 60 57 54 48 43 39 38 40 42 43 44 44 45 45 45 45 45 45 45 45 45 46 46 47 47 47 47 48
64 67 70 70 69 66 64 64 64 66 66 68 71 69 64 63 61 59 55 51 46 43 42 42 43 43 44 45 46 45 45 45 46 46 46 46 46 46 46 46 47 48 49 50
59 63 68 71 71 71 71 71 70 71 72 72 73 68 62 63 63 61 58 54 50 47 46 45 45 45 45 46 46 46 46 46 46 46 46 46 47 47 47 47 48 50 51 52
55 58 62 66 70 72 72 71 69 68 68 70 73 66 63 63 63 61 59 57 53 51 50 49 48 48 47 47 46 46 46 46 46 47 47 48 48 48 48 49 50 52 53 55
56 57 59 61 61 61 61 61 60 60 63 66 69 65 61 62 62 61 60 58 55 53 51 50 50 50 49 48 47 47 46 47 47 48 48 48 49 49 50 52 54 55 56 57
59 60 59 58 57 59 60 59 58 59 61 64 64 63 59 58 59 59 59 57 56 54 54 54 53 52 51 50 49 48 48 48 48 48 49 49 50 51 52 54 56 57 59 61
60 61 61 62 59 60 62 62 62 62 62 63 62 62 55 54 55 56 56 57 57 57 57 57 56 54 53 51 50 49 49 49 49 50 50 50 52 53 54 56 58 60 61 63
62 61 63 64 62 64 67 63 62 62 61 60 61 58 53 54 54 54 55 57 58 59 59 58 58 57 55 54 52 51 50 51 51 51 51 52 53 54 56 58 60 61 63 65
67 63 62 64 64 70 68 61 61 62 62 60 60 56 53 53 53 54 55 57 57 57 58 58 59 59 58 56 55 53 52 52 52 52 52 53 54 56 58 59 61 62 64 66
72 70 68 67 68 70 68 64 62 63 64 59 59 56 54 53 57 57 55 56 56 57 58 59 59 58 58 57 57 56 55 54 54 54 54 55 56 57 59 60 61 63 65 66
73 73 72 72 72 74 71 67 65 66 68 61 61 59 57 57 61 58 57 58 59 60 60 60 59 59 59 59 59 58 57 57 56 56 57 57 58 58 59 60 62 63 64 66
76 75 75 74 73 74 72 71 69 70 68 63 62 61 61 62 63 61 62 62 62 62 62 62 62 62 61 61 60 60 59 58 59 59 59 59 58 58 59 60 61 62 63 64
72 72 73 73 73 73 68 68 69 69 67 65 64 64 63 62 62 62 62 63 64 64 64 63 63 62 62 61 61 60 60 59 59 59 59 59 59 59 59 60 60 62 63 64
68 68 66 66 66 65 63 63 64 64 64 65 65 65 64 63 63 63 62 62 62 63 63 63 63 62 62 62 61 61 60 60 60 59 59 59 59 59 60 60 61 62 63 64
66 65 66 64 63 62 62 61 62 61 60 60 61 61 62 62 62 62 61 61 61 60 60 61 61 61 62 61 61 61 61 60 59 59 58 59 59 60 61 61 62 63 64 65
68 68 68 67 64 63 62 61 60 59 59 59 58 57 56 57 58 59 59 60 60 59 59 60 60 61 61 60 60 59 59 58 58 59 59 60 61 62 62 62 63 64 66 68
63 64 66 67 64 64 63 62 61 61 60 60 59 58 58 57 57 57 57 57 58 58 58 59 59 59 58 58 58 58 58 58 59 60 61 61 62 62 63 64 65 67 68 70
Wind_Direction
233 234 235 238 240 243 247 251 255 259 263 266 268 269 274 280 288 295 298 301 301 297 293 289 284 280 277 275 273 273 272 272 272 271 272 272 273 274 275 276 276 276 276 275
236 237 238 240 243 247 251 254 257 260 263 266 268 269 271 278 286 292 297 298 297 295 291 287 283 281 278 276 275 274 273 272 272 272 272 273 273 274 274 275 276 276 275 275
238 239 240 242 246 250 253 257 259 262 264 268 271 269 270 275 282 289 293 293 293 292 288 284 281 279 277 275 274 274 274 274 274 274 274 273 274 274 274 274 274 275 275 275
240 242 244 246 248 252 254 257 260 263 266 269 271 273 269 273 278 286 289 289 290 289 285 281 278 276 275 274 274 275 276 276 276 276 275 274 274 273 273 273 274 275 275 274
242 244 246 247 249 252 254 257 261 264 267 269 270 274 275 274 277 282 285 287 289 286 281 278 275 274 274 275 275 276 276 277 277 276 275 274 274 273 273 273 273 273 273 273
244 245 247 249 251 254 257 260 262 264 267 268 271 274 276 279 282 283 284 287 286 282 278 275 274 273 274 275 276 277 277 277 277 276 275 275 274 273 272 272 272 272 272 272
247 248 249 251 252 254 256 260 263 264 265 268 272 273 275 280 282 285 287 288 284 279 276 273 272 272 273 275 276 278 278 278 278 276 275 274 273 272 272 271 271 271 271 270
249 249 250 252 254 257 257 258 261 264 267 269 270 272 276 279 283 285 286 286 283 278 274 272 272 272 273 275 276 278 278 277 277 276 274 273 272 271 271 271 270 269 269 269
251 252 252 253 254 256 257 258 261 263 266 269 271 274 277 280 283 284 286 287 286 280 274 271 272 273 274 275 276 277 278 278 277 276 275 273 271 270 269 269 268 268 268 268
252 253 252 253 253 254 257 259 260 261 265 268 271 273 276 280 282 284 286 286 286 282 276 272 272 273 274 275 276 276 276 276 276 275 274 272 271 269 268 268 268 267 267 268
252 253 253 254 254 256 257 258 261 263 264 266 269 272 276 279 281 283 284 285 286 283 278 274 273 273 274 275 275 276 276 276 275 275 273 271 270 269 268 267 267 267 267 269
252 254 254 255 256 257 258 259 259 261 264 266 269 270 273 277 279 280 282 284 284 281 278 277 276 276 275 275 275 275 275 275 275 274 273 272 270 269 269 268 268 268 268 270
252 253 254 254 255 256 258 260 262 263 264 266 268 269 271 273 275 277 279 280 279 278 277 277 277 276 276 276 276 276 275 275 274 274 273 272 271 270 269 268 268 269 270 271
252 254 254 256 258 259 259 259 259 259 260 263 265 267 268 271 273 274 275 276 278 278 278 277 276 276 277 277 277 276 275 274 273 273 272 272 271 270 269 269 270 271 272 273
251 253 255 255 255 257 257 257 256 257 261 263 266 266 266 268 270 272 274 276 276 276 275 275 276 277 277 277 277 276 275 274 273 272 272 271 271 270 271 271 272 273 274 275
252 254 255 255 255 256 256 256 258 260 261 263 265 266 268 269 269 268 270 271 272 273 274 275 276 277 277 277 276 276 275 274 273 273 272 271 271 272 272 273 274 275 276 277
250 252 254 255 254 255 254 257 259 261 262 264 265 267 265 264 264 266 266 267 269 271 272 274 275 276 276 276 276 275 275 275 274 273 273 272 272 273 273 273 274 275 277 278
248 249 252 254 253 253 256 257 257 259 259 262 265 266 265 265 265 264 265 267 268 269 270 271 273 274 275 276 276 275 275 275 274 273 273 273 273 273 273 273 274 276 276 277
247 248 250 252 254 256 255 255 258 260 260 261 264 264 262 262 263 263 266 267 268 268 268 269 271 272 273 275 275 275 275 275 274 274 273 273 273 272 273 274 275 275 276 277
247 249 251 252 254 255 255 256 258 260 259 258 261 262 262 261 262 263 264 265 267 268 268 269 270 271 272 273 274 274 275 275 274 273 273 273 273 273 274 274 274 275 275 276
247 248 250 252 254 256 256 257 259 260 262 261 261 262 261 260 262 262 263 264 267 268 269 270 271 271 272 272 273 273 274 274 274 274 274 274 274 274 274 274 274 274 275 276
249 250 251 252 252 254 255 257 258 261 261 261 261 262 262 262 262 263 264 265 266 268 269 270 270 271 271 272 272 272 272 273 273 273 273 273 273 273 273 273 274 274 275 276
246 247 249 251 253 255 255 257 258 259 260 260 261 262 263 263 263 264 265 265 266 267 268 269 270 270 271 272 272 272 272 273 273 273 272 272 273 273 273 273 274 275 276 276
240 242 245 247 250 252 253 255 257 258 259 260 261 262 262 263 264 265 265 265 265 266 267 268 269 270 271 272 272 272 273 273 273 273 273 273 273 273 274 274 275 275 275 275
240 240 243 246 248 250 251 253 254 255 256 257 258 260 261 262 263 264 265 265 267 268 269 271 271 271 271 272 272 272 273 272 272 273 273 273 274 274 274 275 275 276 275 276
242 244 246 247 248 250 251 253 256 257 259 259 260 260 261 263 264 265 266 267 269 270 271 272 272 272 272 272 272 272 272 273 273 274 274 274 274 275 275 275 276 275 275 276
Height
5813 5818 5821 5824 5824 5826 5829 5831 5833 5833 5832 5833 5834 5837 5838 5837 5839 5839 5838 5837 5836 5835 5833 5831 5831 5830 5830 5830 5829 5829 5829 5829 5828 5828 5828 5828 5828 5828 5827 5827 5826 5825 5824 5824
5807 5811 5814 5815 5817 5820 5822 5824 5825 5826 5825 5825 5826 5829 5833 5833 5833 5833 5833 5831 5830 5828 5826 5825 5823 5823 5823 5822 5822 5822 5822 5822 5821 5821 5821 5821 5820 5820 5820 5819 5818 5817 5817 5816
5797 5803 5805 5808 5810 5813 5815 5816 5817 5817 5817 5817 5817 5819 5826 5828 5827 5828 5827 5825 5823 5821 5819 5817 5816 5815 5815 5815 5814 5814 5814 5814 5814 5813 5813 5813 5812 5812 5811 5811 5810 5809 5808 5808
5788 5793 5797 5800 5803 5804 5807 5807 5807 5807 5808 5810 5809 5804 5817 5822 5822 5822 5821 5818 5816 5814 5812 5810 5808 5807 5807 5806 5806 5806 5806 5806 5806 5805 5805 5804 5804 5803 5803 5801 5801 5800 5799 5799
5780 5784 5787 5791 5794 5794 5796 5797 5798 5799 5799 5800 5800 5795 5799 5811 5815 5816 5814 5811 5809 5806 5803 5801 5800 5799 5798 5798 5797 5797 5797 5797 5797 5796 5795 5795 5794 5794 5793 5792 5791 5791 5790 5789
5769 5773 5776 5781 5784 5785 5786 5788 5788 5788 5788 5789 5792 5788 5783 5798 5803 5805 5806 5804 5801 5797 5794 5792 5791 5790 5790 5788 5788 5788 5788 5788 5787 5786 5785 5785 5784 5783 5782 5782 5781 5780 5780 5779
5758 5762 5766 5770 5772 5774 5776 5778 5777 5777 5777 5779 5780 5776 5776 5787 5791 5794 5795 5794 5791 5788 5785 5783 5782 5781 5780 5779 5778 5778 5778 5778 5777 5776 5775 5775 5774 5773 5772 5771 5771 5770 5769 5769
5744 5749 5755 5758 5760 5763 5764 5766 5766 5766 5766 5769 5767 5763 5769 5775 5779 5782 5783 5782 5781 5779 5776 5774 5773 5772 5771 5770 5769 5768 5767 5767 5766 5765 5764 5763 5762 5762 5761 5761 5760 5759 5759 5758
5731 5736 5741 5745 5747 5749 5750 5753 5756 5754 5753 5753 5754 5755 5759 5764 5767 5769 5769 5770 5769 5768 5767 5765 5763 5762 5761 5760 5759 5758 5757 5756 5755 5754 5753 5752 5751 5750 5750 5749 5748 5748 5748 5747
5717 5720 5725 5728 5731 5735 5737 5740 5741 5740 5741 5741 5742 5744 5747 5752 5753 5755 5757 5757 5757 5757 5756 5755 5754 5752 5751 5750 5748 5747 5746 5745 5744 5742 5742 5741 5740 5739 5738 5738 5738 5737 5737 5736
5701 5704 5709 5712 5717 5722 5725 5727 5727 5726 5728 5729 5730 5735 5740 5740 5740 5741 5742 5744 5745 5745 5744 5743 5742 5741 5740 5738 5737 5736 5735 5734 5733 5731 5730 5729 5729 5728 5727 5727 5727 5726 5725 5725
5688 5688 5691 5697 5702 5704 5707 5711 5712 5711 5714 5716 5719 5725 5732 5730 5727 5728 5729 5730 5731 5731 5731 5730 5730 5729 5728 5727 5726 5725 5724 5723 5721 5720 5719 5718 5717 5717 5716 5716 5716 5715 5714 5713
5672 5672 5676 5680 5687 5689 5690 5695 5697 5698 5699 5702 5705 5714 5719 5718 5715 5716 5716 5716 5716 5717 5717 5717 5717 5716 5715 5714 5713 5713 5712 5711 5710 5709 5708 5707 5706 5706 5705 5704 5703 5702 5701 5700
5656 5657 5662 5668 5674 5673 5676 5680 5681 5681 5681 5686 5691 5701 5707 5704 5701 5701 5702 5702 5701 5702 5703 5703 5703 5702 5702 5701 5701 5701 5700 5699 5698 5697 5696 5695 5695 5694 5693 5692 5691 5690 5688 5687
5640 5642 5648 5654 5658 5657 5659 5662 5665 5665 5668 5671 5679 5684 5694 5692 5689 5688 5687 5687 5687 5688 5688 5688 5688 5689 5689 5689 5688 5687 5687 5686 5686 5685 5684 5684 5683 5681 5680 5679 5678 5677 5675 5673
5627 5629 5633 5637 5644 5642 5640 5646 5650 5653 5655 5657 5662 5669 5683 5678 5676 5675 5674 5672 5672 5672 5673 5673 5674 5675 5675 5675 5674 5674 5674 5673 5673 5672 5672 5671 5669 5668 5667 5666 5664 5663 5661 5658
5613 5616 5618 5620 5628 5621 5620 5637 5640 5640 5642 5645 5646 5658 5666 5661 5661 5660 5659 5659 5659 5659 5659 5659 5660 5660 5660 5660 5660 5660 5660 5659 5659 5659 5658 5657 5656 5655 5654 5652 5650 5648 5646 5643
5597 5600 5601 5603 5606 5598 5613 5628 5626 5625 5628 5631 5633 5643 5648 5648 5644 5644 5646 5645 5645 5645 5646 5646 5646 5646 5646 5646 5646 5646 5645 5645 5645 5645 5644 5643 5642 5641 5639 5637 5635 5633 5630 5628
5582 5584 5586 5587 5584 5584 5598 5611 5613 5609 5611 5621 5621 5626 5631 5631 5625 5631 5633 5630 5630 5631 5631 5632 5632 5632 5632 5632 5631 5631 5631 5630 5630 5629 5629 5628 5626 5625 5623 5622 5620 5617 5615 5612
5565 5567 5569 5569 5568 5568 5585 5597 5596 5591 5590 5610 5607 5609 5614 5613 5609 5619 5618 5614 5614 5615 5616 5617 5617 5618 5618 5617 5616 5616 5615 5615 5614 5613 5612 5611 5610 5609 5608 5606 5604 5601 5599 5596
5547 5548 5549 5551 5551 5553 5570 5577 5576 5573 5582 5592 5590 5591 5594 5595 5596 5600 5600 5599 5599 5599 5600 5601 5601 5602 5602 5601 5601 5600 5599 5599 5598 5596 5596 5595 5594 5593 5591 5589 5587 5585 5582 5579
5528 5531 5534 5537 5537 5543 5556 5558 5559 5561 5566 5569 5571 5572 5575 5577 5579 5581 5583 5583 5583 5583 5583 5584 5584 5585 5585 5584 5584 5583 5583 5582 5581 5580 5579 5578 5577 5576 5574 5572 5570 5568 5566 5563
5510 5515 5519 5522 5526 5531 5536 5539 5541 5544 5547 5550 5552 5554 5557 5559 5561 5563 5565 5566 5566 5566 5567 5567 5567 5567 5567 5567 5567 5566 5565 5565 5564 5563 5562 5561 5560 5559 5557 5555 5553 5551 5548 5546
5493 5498 5501 5504 5509 5516 5520 5522 5525 5527 5530 5533 5535 5538 5540 5542 5543 5545 5547 5548 5549 5549 5550 5550 5550 5550 5550 5550 5549 5549 5548 5547 5547 5546 5545 5544 5542 5541 5539 5538 5536 5534 5531 5528
5477 5481 5484 5487 5495 5499 5503 5506 5509 5511 5514 5517 5519 5521 5523 5525 5526 5528 5529 5530 5531 5532 5533 5533 5533 5533 5532 5532 5532 5531 5531 5530 5529 5528 5527 5526 5524 5523 5521 5520 5518 5515 5513 5510
5460 5466 5470 5474 5480 5483 5487 5489 5492 5495 5498 5500 5503 5506 5507 5509 5510 5511 5512 5513 5514 5515 5515 5515 5516 5515 5515 5515 5515 5514 5513 5513 5512 5510 5509 5508 5506 5505 5503 5501 5499 5496 5493 5490